TimeCDT,TemperatureF,Dew PointF,Humidity,Sea Level PressureIn,VisibilityMPH,Wind Direction,Wind SpeedMPH,Gust SpeedMPH,PrecipitationIn,Events,Conditions,WindDirDegrees,DateUTC
12:15 AM,61.3,59.5,94,29.60,10.0,WNW,4.6,-,N/A,,Overcast,300,2012-10-14 05:15:00
12:35 AM,61.7,59.9,94,29.60,10.0,Calm,Calm,-,N/A,,Overcast,0,2012-10-14 05:35:00
12:55 AM,61.3,59.5,94,29.60,10.0,Calm,Calm,-,N/A,,Overcast,0,2012-10-14 05:55:00
1:15 AM,61.2,59.4,94,29.61,10.0,Calm,Calm,-,N/A,,Overcast,0,2012-10-14 06:15:00
1:35 AM,61.0,59.9,96,29.62,10.0,Calm,Calm,-,N/A,,Overcast,0,2012-10-14 06:35:00
1:55 AM,61.2,60.1,96,29.61,10.0,Calm,Calm,-,N/A,,Overcast,0,2012-10-14 06:55:00
2:35 AM,61.9,60.8,96,29.61,4.0,ESE,9.2,-,0.14,Rain-Thunderstorm,Heavy Thunderstorms and Rain,120,2012-10-14 07:35:00
2:55 AM,61.7,60.8,97,29.62,2.5,SSW,10.4,-,0.52,Rain-Thunderstorm,Heavy Thunderstorms and Rain,200,2012-10-14 07:55:00
7:15 AM,54.1,50.9,89,29.75,-9999.0,NW,18.4,-,N/A,,Unknown,320,2012-10-14 12:15:00
7:35 AM,53.8,50.7,89,29.76,7.0,NW,19.6,24.2,N/A,,Clear,310,2012-10-14 12:35:00
7:55 AM,52.7,50.0,91,29.76,5.0,NW,18.4,23.0,N/A,,Clear,320,2012-10-14 12:55:00
8:15 AM,52.7,49.5,89,29.78,7.0,NW,18.4,24.2,N/A,,Clear,320,2012-10-14 13:15:00
8:35 AM,52.7,49.3,88,29.80,7.0,NW,17.3,24.2,N/A,,Clear,310,2012-10-14 13:35:00
8:55 AM,52.7,47.3,82,29.82,10.0,NW,21.9,28.8,N/A,,Clear,310,2012-10-14 13:55:00
9:15 AM,51.8,45.0,77,29.82,10.0,NW,21.9,27.6,N/A,,Clear,320,2012-10-14 14:15:00
9:35 AM,52.7,44.8,74,29.84,10.0,NW,19.6,28.8,N/A,,Clear,310,2012-10-14 14:35:00
9:55 AM,51.3,43.5,75,29.85,10.0,NW,13.8,-,N/A,,Clear,310,2012-10-14 14:55:00
10:15 AM,53.1,43.7,71,29.86,10.0,NW,16.1,27.6,N/A,,Clear,320,2012-10-14 15:15:00
10:35 AM,54.5,42.4,64,29.87,10.0,NW,23.0,26.5,N/A,,Clear,310,2012-10-14 15:35:00
10:55 AM,55.8,42.3,60,29.87,10.0,NW,15.0,24.2,N/A,,Clear,320,2012-10-14 15:55:00
11:15 AM,57.2,41.9,57,29.88,10.0,NW,23.0,27.6,N/A,,Clear,320,2012-10-14 16:15:00
11:35 AM,58.1,41.2,53,29.89,10.0,NW,21.9,27.6,N/A,,Clear,320,2012-10-14 16:35:00
11:55 AM,58.1,39.9,51,29.90,10.0,NW,27.6,36.8,N/A,,Clear,310,2012-10-14 16:55:00
12:15 PM,59.0,40.3,50,29.91,10.0,NW,24.2,34.5,N/A,,Clear,310,2012-10-14 17:15:00
12:35 PM,60.4,40.6,48,29.91,10.0,NW,24.2,29.9,N/A,,Clear,310,2012-10-14 17:35:00
12:55 PM,61.5,40.5,46,29.91,10.0,NW,21.9,31.1,N/A,,Clear,310,2012-10-14 17:55:00
1:15 PM,62.2,39.2,43,29.92,10.0,NW,20.7,24.2,N/A,,Clear,310,2012-10-14 18:15:00
1:35 PM,63.1,38.7,40,29.92,10.0,NW,15.0,26.5,N/A,,Clear,310,2012-10-14 18:35:00
1:55 PM,64.2,39.0,39,29.92,10.0,NW,19.6,25.3,N/A,,Clear,310,2012-10-14 18:55:00
2:15 PM,64.9,38.5,38,29.92,10.0,NW,21.9,27.6,N/A,,Clear,310,2012-10-14 19:15:00
2:35 PM,65.3,37.9,36,29.92,10.0,NW,18.4,25.3,N/A,,Clear,310,2012-10-14 19:35:00
3:15 PM,65.5,36.3,34,29.92,10.0,WNW,19.6,31.1,N/A,,Clear,300,2012-10-14 20:15:00
3:35 PM,65.8,37.0,35,29.93,10.0,WNW,18.4,25.3,N/A,,Clear,300,2012-10-14 20:35:00
3:55 PM,66.6,36.9,33,29.93,10.0,NW,18.4,24.2,N/A,,Clear,320,2012-10-14 20:55:00
4:15 PM,66.2,36.5,33,29.94,10.0,WNW,17.3,21.9,N/A,,Clear,300,2012-10-14 21:15:00
4:35 PM,66.2,36.0,33,29.94,10.0,NW,17.3,24.2,N/A,,Clear,310,2012-10-14 21:35:00
4:55 PM,66.2,36.5,33,29.94,10.0,NW,12.7,-,N/A,,Clear,310,2012-10-14 21:55:00
5:15 PM,65.7,36.1,34,29.94,10.0,NW,12.7,19.6,N/A,,Clear,320,2012-10-14 22:15:00
5:35 PM,65.1,36.5,35,29.94,10.0,NW,11.5,16.1,N/A,,Clear,310,2012-10-14 22:35:00
5:55 PM,64.0,37.2,37,29.95,10.0,NW,8.1,-,N/A,,Clear,310,2012-10-14 22:55:00
6:15 PM,62.4,38.3,41,29.96,10.0,NW,6.9,-,N/A,,Clear,310,2012-10-14 23:15:00
6:55 PM,59.2,38.5,46,29.96,10.0,WNW,4.6,-,N/A,,Clear,290,2012-10-14 23:55:00
7:15 PM,58.3,38.7,48,29.96,10.0,West,3.5,-,N/A,,Clear,280,2012-10-15 00:15:00
7:35 PM,58.1,38.7,48,29.96,10.0,West,3.5,-,N/A,,Clear,280,2012-10-15 00:35:00
7:55 PM,58.3,38.3,47,29.96,10.0,WSW,3.5,-,N/A,,Clear,250,2012-10-15 00:55:00
8:15 PM,58.1,37.8,47,29.96,10.0,Calm,Calm,-,N/A,,Clear,0,2012-10-15 01:15:00
8:35 PM,56.7,37.9,50,29.96,10.0,Calm,Calm,-,N/A,,Clear,0,2012-10-15 01:35:00
8:55 PM,53.6,39.0,58,29.97,10.0,Calm,Calm,-,N/A,,Clear,0,2012-10-15 01:55:00
9:15 PM,51.3,39.4,64,29.97,10.0,West,4.6,-,N/A,,Clear,270,2012-10-15 02:15:00
9:35 PM,52.5,38.8,60,29.97,10.0,West,4.6,-,N/A,,Clear,280,2012-10-15 02:35:00
9:55 PM,52.5,39.2,61,29.97,10.0,West,6.9,-,N/A,,Clear,260,2012-10-15 02:55:00
10:15 PM,52.2,38.7,60,29.99,10.0,WSW,5.8,-,N/A,,Clear,250,2012-10-15 03:15:00
10:35 PM,52.5,38.5,59,29.99,10.0,West,5.8,-,N/A,,Clear,260,2012-10-15 03:35:00
10:55 PM,53.6,38.3,56,29.99,10.0,West,6.9,-,N/A,,Clear,270,2012-10-15 03:55:00
11:15 PM,51.8,38.5,60,29.99,10.0,WSW,8.1,-,N/A,,Clear,250,2012-10-15 04:15:00
11:35 PM,52.9,38.3,58,29.99,10.0,WSW,5.8,-,N/A,,Clear,250,2012-10-15 04:35:00
11:55 PM,54.0,37.4,54,29.99,10.0,West,5.8,-,N/A,,Clear,260,2012-10-15 04:55:00